This demonstration page uses our WeatherBlox Daily Observations layout. Learn more.

39.92423, -83.80882

Hourly Observations for October 31, 2020

Temp ( °F °C ) Dew Point ( °F °C ) Humidity (%) Winds ( mph kmh ) Pressure ( in mb ) Visibility ( mi km ) Precip ( " mm )
12:56 am 00:56 Clear 33 0.6 32 0 96 96 ESE 5 7 30.39 1029 10 16.0934 0 0
1:56 am 01:56 Clear 32 0 31 -0.6 96 96 SSE 6 9 30.39 1029 10 16.0934 0 0
2:56 am 02:56 Clear 32 0 30 -1.1 92 92 SE 7 11 30.39 1029 10 16.0934 0 0
3:56 am 03:56 Clear 32 0 29 -1.7 88 88 SE 7 11 30.39 1029 10 16.0934 0 0
4:56 am 04:56 Clear 32 0 29 -1.7 88 88 ESE 6 9 30.4 1030 10 16.0934 0 0
5:56 am 05:56 Clear 31 -0.6 28 -2.2 89 89 ESE 6 9 30.41 1030 10 16.0934 0 0
6:56 am 06:56 Clear 31 -0.6 28 -2.2 89 89 SE 7 11 30.43 1030 10 16.0934 0 0
7:56 am 07:56 Clear 31 -0.6 29 -1.7 92 92 SE 7 11 30.43 1031 10 16.0934 0 0
8:56 am 08:56 Sunny 34 1.1 30 -1.1 85 85 SE 7 11 30.43 1031 10 16.0934 0 0
9:56 am 09:56 Sunny 39 3.9 33 0.6 79 79 ESE 10 17 30.43 1031 10 16.0934 0 0
10:56 am 10:56 Sunny 44 6.7 32 0 63 63 SSE 12 19 30.42 1030 10 16.0934 0 0
11:56 am 11:56 Sunny 47 8.3 33 0.6 59 59 SSE 10 17 30.4 1030 10 16.0934 0.01 0.254
12:56 pm 12:56 Sunny 49 9.4 34 1.1 56 56 S 7 11 30.38 1029 10 16.0934 0 0
1:56 pm 13:56 Sunny 51 10.6 34 1.1 52 52 SE 9 15 30.34 1027 10 16.0934 0 0
2:56 pm 14:56 Sunny 53 11.7 35 1.7 51 51 S 7 11 30.31 1027 10 16.0934 0 0
3:56 pm 15:56 Sunny 54 12.2 35 1.7 49 49 SSE 10 17 30.27 1025 10 16.0934 0 0
4:56 pm 16:56 Sunny 53 11.7 35 1.7 51 51 SSE 8 13 30.24 1024 10 16.0934 0 0
5:56 pm 17:56 Sunny 52 11.1 36 2.2 55 55 VRB 7 11 30.22 1023 10 16.0934 0 0
6:56 pm 18:56 Clear 48 8.9 36 2.2 63 63 SSE 6 9 30.21 1023 10 16.0934 0 0
7:56 pm 19:56 Clear 45 7.2 37 2.8 74 74 SSE 5 7 30.2 1023 10 16.0934 0 0
8:56 pm 20:56 Clear 45 7.2 37 2.8 74 74 S 8 13 30.18 1022 10 16.0934 0 0
9:56 pm 21:56 Clear 44 6.7 37 2.8 76 76 S 5 7 30.16 1021 10 16.0934 0 0
10:56 pm 22:56 Clear 45 7.2 38 3.3 77 77 S 7 11 30.13 1020 10 16.0934 0 0
11:56 pm 23:56 Clear 46 7.8 38 3.3 73 73 S 8 13 30.09 1019 10 16.0934 0 0

Powered by AerisWeather